Nassau, Bahamas

4:50 PM EDT on July 23, 2016 (GMT -0400)
Nassau International

Weather History for MYNN - January, 2014

Change the Weather History Date:

Wednesday, January 22, 2014

  Actual Average Record
Temperature  
Mean Temperature 68 °F -  
Max Temperature 71 °F 78 °F 84 °F (2002)
Min Temperature 64 °F 62 °F 50 °F (2003)
Cooling Degree Days 2    
Growing Degree Days 18 (Base 50)    
Moisture  
Dew Point 57 °F    
Average Humidity 65    
Maximum Humidity 83    
Minimum Humidity 46    
Precipitation  
Precipitation 0.00 in 0.06 in - ()
Sea Level Pressure  
Sea Level Pressure 30.02 in    
Wind  
Wind Speed 10 mph ()    
Max Wind Speed 17 mph    
Max Gust Speed -    
Visibility 6.6 miles    
Events Rain    
Averages and records for this station are not official NWS values.
T = Trace of Precipitation, MM = Missing Value Source: Averaged Metar Reports

Daily Weather History Graph

Daily Weather History Graph

Search for Another Location

Airport or City:

Trip Planner

Search our weather history database for the weather conditions in past years. The results will help you decide how hot, cold, wet, or windy it might be!

Date:

Astronomy

Jan. 22, 2014 Rise Set
Actual Time 6:55 AM EST 5:47 PM EST
Civil Twilight 6:31 AM EST 6:11 PM EST
Nautical Twilight 6:03 AM EST 6:39 PM EST
Astronomical Twilight 5:36 AM EST 7:06 PM EST
Moon 11:33 PM EST (1/22) 10:37 AM EST (1/22)
Length of Visible Light 11h 40m
Length of Day
10h 51m
Waning Gibbous, 65% of the Moon is Illuminated
Jan 22
Waning Gibbous
Jan 24
Last Quarter
Jan 30
New
Feb 6
First Quarter
Feb 14
Full

Hourly Weather History & Observations

Time (EST) Temp. Dew Point Humidity Pressure Visibility Wind Dir Wind Speed Gust Speed Precip Events Conditions
12:00 AM 68.0 °F 62.6 °F 83% 29.93 in 6.2 mi WSW 11.5 mph - N/A   Mostly Cloudy
1:00 AM 70 °F 64 °F 76% 29.93 in 8 mi West 10.4 mph - -   Partly Cloudy
1:00 AM 69.8 °F 64.4 °F 83% 29.93 in 6.2 mi West 10.4 mph - N/A   Mostly Cloudy
2:00 AM 69.8 °F 59.0 °F 68% 29.91 in 6.2 mi West 13.8 mph - N/A   Mostly Cloudy
3:00 AM 69.8 °F 59.0 °F 68% 29.91 in 6.2 mi WNW 17.3 mph - N/A   Mostly Cloudy
4:00 AM 69 °F 62 °F 71% 29.92 in 8 mi WNW 16.1 mph - -   Partly Cloudy
4:00 AM 68.0 °F 62.6 °F 83% 29.91 in 6.2 mi WNW 16.1 mph - N/A   Mostly Cloudy
5:00 AM 69.8 °F 57.2 °F 64% 29.92 in 6.2 mi West 16.1 mph - N/A   Mostly Cloudy
6:00 AM 69.8 °F 59.0 °F 68% 29.94 in 6.2 mi WNW 15.0 mph - N/A   Mostly Cloudy
7:00 AM 71.6 °F 64.4 °F 78% 29.96 in 6.2 mi WNW 15.0 mph - N/A Rain Light Rain Showers
8:00 AM 69.8 °F 59.0 °F 68% 29.98 in 6.2 mi WNW 15.0 mph - N/A   Partly Cloudy
9:00 AM 69.8 °F 59.0 °F 68% 30.00 in 6.2 mi WNW 11.5 mph - N/A   Mostly Cloudy
10:00 AM 71.6 °F 60.8 °F 69% 30.03 in 6.2 mi WNW 13.8 mph - N/A   Scattered Clouds
11:00 AM 69.8 °F 55.4 °F 60% 30.05 in 6.2 mi WNW 15.0 mph - N/A   Partly Cloudy
12:00 PM 69.8 °F 53.6 °F 56% 30.04 in 6.2 mi WNW 11.5 mph - N/A   Scattered Clouds
1:00 PM 70 °F 58 °F 56% 30.03 in 8 mi West 12.7 mph - -   Partly Cloudy
1:00 PM 69.8 °F 57.2 °F 64% 30.02 in 6.2 mi West 12.7 mph - N/A   Scattered Clouds
2:00 PM 69.8 °F 50.0 °F 49% 30.02 in 6.2 mi NNW 9.2 mph - N/A   Mostly Cloudy
3:00 PM 68.0 °F 48.2 °F 49% 30.04 in 6.2 mi North 10.4 mph - N/A   Mostly Cloudy
4:00 PM 70 °F 54 °F 46% 30.05 in 8 mi NNW 8.1 mph - -   Scattered Clouds
4:00 PM 69.8 °F 53.6 °F 56% 30.05 in 6.2 mi NNW 8.1 mph - N/A   Scattered Clouds
5:00 PM 68.0 °F 50.0 °F 52% 30.07 in 6.2 mi NNW 9.2 mph - N/A   Scattered Clouds
6:00 PM 66.2 °F 51.8 °F 60% 30.10 in 6.2 mi NW 6.9 mph - N/A   Scattered Clouds
7:00 PM 66 °F 57 °F 64% 30.12 in 8 mi North 6.9 mph - -   Scattered Clouds
7:00 PM 66.2 °F 57.2 °F 73% 30.11 in 6.2 mi North 6.9 mph - N/A   Scattered Clouds
8:00 PM 64.4 °F 50.0 °F 59% 30.13 in - NNW 5.8 mph - N/A   Clear
9:00 PM 64.4 °F 50.0 °F 59% 30.14 in - North 4.6 mph - N/A   Clear
10:00 PM 65 °F 55 °F 62% 30.15 in 8 mi North 4.6 mph - -   Scattered Clouds
10:00 PM 64.4 °F 55.4 °F 73% 30.15 in 6.2 mi North 4.6 mph - N/A   Partly Cloudy
11:00 PM 64.4 °F 50.0 °F 59% 30.17 in 6.2 mi North 4.6 mph - N/A   Partly Cloudy